Regional Weather Roundup
Issued by NWS

Home | Current Version | Previous Version | Text Only | Print | Product List | Glossary On
Versions: 1 2 3 4 5 6 7 8 9 10 11 12 13 14 15 16 17 18 19 20 21 22 23 24 25 26 27 28 29 30 31 32 33 34 35 36 37 38 39 40 41 42 43 44 45 46 47 48 49 50
000
ASUS43 KLMK 210410
RWRKY
KENTUCKY REGIONAL WEATHER ROUNDUP
NATIONAL WEATHER SERVICE LOUISVILLE KY
1200 AM EDT SAT APR 21 2018

NOTE "FAIR" INDICATES FEW OR NO CLOUDS BELOW 12,000 FEET
WITH NO SIGNIFICANT WEATHER AND/OR OBSTRUCTIONS TO VISIBILITY.

KYZ001>023-026-027-061>063-070>075-210500-
WESTERN AND SOUTH CENTRAL KENTUCKY

CITY           SKY/WX    TMP DP  RH WIND       PRES   REMARKS
PADUCAH        FAIR      50  32  50 CALM      30.31R
HENDERSON      FAIR      51  34  52 NE8       30.35S
OWENSBORO      FAIR      55  25  31 E7        30.36R
HOPKINSVILLE   FAIR      51  29  42 NE8       30.32R
BOWLING GREEN  FAIR      47  31  53 E8        30.34F
GLASGOW        FAIR      47  31  53 NE6       30.35S
$$

KYZ024-025-028>034-038-045-046-053-210500-
NORTH CENTRAL KENTUCKY

CITY           SKY/WX    TMP DP  RH WIND       PRES   REMARKS
LOUISVILLE/SDF FAIR      53  25  33 E7        30.37S
LOUISVILLE/LOU FAIR      51  26  37 NE6       30.38S
FORT KNOX      FAIR      51  25  36 NE6       30.37S
$$

KYZ035>037-039>044-047>052-055>060-089>105-210500-
NORTHEAST KENTUCKY

CITY           SKY/WX    TMP DP  RH WIND       PRES   REMARKS
LEXINGTON      FAIR      45  29  53 NE10      30.39S
COVINGTON      FAIR      47  28  47 E7        30.40F
FRANKFORT      FAIR      49  25  39 NE7       30.37F
$$

KYZ054-064>069-076>088-106>120-210500-
SOUTHEAST KENTUCKY

CITY           SKY/WX    TMP DP  RH WIND       PRES   REMARKS
JACKSON        FAIR      49  21  33 NE5       30.38S
LONDON         FAIR      47  28  47 N6        30.36S
SOMERSET       FAIR      45  28  53 NE3       30.38S
MIDDLESBORO    FAIR      43  33  67 CALM      30.36S
MONTICELLO     FAIR      42  31  64 NW7       30.37S
$$





USA.gov is the U.S. government's official web portal to all federal, state and local government web resources and services.